Date,TemperatureHighF,TemperatureAvgF,TemperatureLowF,DewpointHighF,DewpointAvgF,DewpointLowF,HumidityHigh,HumidityAvg,HumidityLow,PressureMaxIn,PressureMinIn,WindSpeedMaxMPH,WindSpeedAvgMPH,GustSpeedMaxMPH,PrecipitationSumIn
2013-6-17,84,79,77,76,75,71,97,88,69,0.00,40.00,12,5,16,0.00
2013-6-18,89,80,71,77,73,70,98,82,56,0.00,40.00,16,5,24,0.00
2013-6-19,88,78,72,78,73,69,99,85,55,0.00,40.00,12,5,32,0.00
2013-6-20,80,75,72,73,70,66,97,87,63,0.00,40.00,11,6,21,0.00
2013-6-22,85,81,78,75,71,66,91,73,55,0.00,40.00,6,3,11,0.00
2013-6-23,87,80,76,77,74,71,97,81,59,0.00,40.00,16,5,23,0.00
2013-6-25,87,81,77,76,74,70,95,80,61,0.00,40.00,11,5,20,0.00
2013-6-26,84,77,70,76,74,68,98,90,65,0.00,40.00,8,4,21,0.00
2013-6-27,90,81,77,79,76,70,97,85,57,0.00,40.00,13,6,24,0.00
2013-6-28,90,83,78,79,75,70,92,77,62,0.00,40.00,13,7,25,0.00
2013-6-29,87,80,72,77,73,70,97,80,61,0.00,40.00,14,6,28,0.00
2013-6-30,83,77,73,77,74,70,98,91,74,0.00,40.00,13,5,22,0.00
2013-7-1,85,79,74,77,75,72,97,86,71,0.00,40.00,14,7,26,0.00
2013-7-2,82,79,75,77,73,71,94,82,70,0.00,40.00,12,6,29,0.00
2013-7-3,85,80,78,78,76,73,96,87,70,0.00,40.00,14,6,22,0.00
2013-7-4,85,82,79,77,75,72,91,82,68,0.00,40.00,16,8,29,0.00
2013-7-5,86,82,77,78,76,73,96,81,70,0.00,40.00,17,6,24,0.00
2013-7-6,85,81,78,76,74,71,92,79,64,0.00,40.00,18,6,26,0.00
2013-7-7,86,82,78,75,72,70,90,75,59,0.00,40.00,11,5,20,0.00
2013-7-8,87,79,76,74,70,-100,91,78,58,0.00,40.00,9,3,16,0.00
2013-7-9,85,78,76,75,74,72,95,86,65,0.00,40.00,6,2,13,0.00